Year,Month,Day,Hour,Minute,Value (Times are PST for temperature in C)
2010,05,06,00,00,6.70
2010,05,06,00,06,6.50
2010,05,06,00,07,6.40
2010,05,06,00,08,6.40
2010,05,06,00,09,6.40
2010,05,06,00,10,6.30
2010,05,06,00,11,6.30
2010,05,06,00,12,6.30
2010,05,06,00,13,6.20
2010,05,06,00,14,6.20
2010,05,06,00,15,6.20
2010,05,06,00,16,6.20
2010,05,06,00,17,6.10
2010,05,06,00,18,6.10
2010,05,06,00,19,6.10
2010,05,06,00,20,6.10
2010,05,06,00,21,6.10
2010,05,06,00,22,6.10
2010,05,06,00,23,6.00
2010,05,06,00,24,6.00
2010,05,06,00,25,6.00
2010,05,06,00,26,5.90
2010,05,06,00,27,5.90
2010,05,06,00,28,5.90
2010,05,06,00,29,5.80
2010,05,06,00,30,5.80
2010,05,06,00,31,5.80
2010,05,06,00,32,5.70
2010,05,06,00,33,5.70
2010,05,06,00,34,5.70
2010,05,06,00,35,5.60
2010,05,06,00,36,5.60
2010,05,06,00,37,5.60
2010,05,06,00,38,5.50
2010,05,06,00,39,5.50
2010,05,06,00,40,5.50
2010,05,06,00,41,5.50
2010,05,06,00,42,5.40
2010,05,06,00,43,5.40
2010,05,06,00,44,5.50
2010,05,06,00,45,5.50
2010,05,06,00,46,5.50
2010,05,06,00,47,5.50
2010,05,06,00,48,5.50
2010,05,06,00,49,5.50
2010,05,06,00,50,5.50
2010,05,06,00,51,5.60
2010,05,06,00,52,5.60
2010,05,06,00,53,5.60
2010,05,06,00,54,5.60
2010,05,06,00,55,5.60
2010,05,06,00,56,5.60
2010,05,06,00,57,5.60
2010,05,06,00,58,5.50
2010,05,06,00,59,5.50
2010,05,06,01,00,5.50
2010,05,06,01,01,5.40
2010,05,06,01,02,5.40
2010,05,06,01,03,5.40
2010,05,06,01,04,5.40
2010,05,06,01,05,5.40
2010,05,06,01,06,5.30
2010,05,06,01,07,5.30
2010,05,06,01,08,5.30
2010,05,06,01,09,5.30
2010,05,06,01,10,5.30
2010,05,06,01,11,5.30
2010,05,06,01,12,5.20
2010,05,06,01,13,5.20
2010,05,06,01,14,5.20
2010,05,06,01,15,5.20
2010,05,06,01,16,5.20
2010,05,06,01,17,5.20
2010,05,06,01,18,5.10
2010,05,06,01,19,5.10
2010,05,06,01,20,5.10
2010,05,06,01,21,5.10
2010,05,06,01,22,5.10
2010,05,06,01,23,5.10
2010,05,06,01,24,5.10
2010,05,06,01,25,5.10
2010,05,06,01,26,5.00
2010,05,06,01,27,5.00
2010,05,06,01,28,5.00
2010,05,06,01,29,5.00
2010,05,06,01,30,4.90
2010,05,06,01,31,4.90
2010,05,06,01,32,4.90
2010,05,06,01,33,4.90
2010,05,06,01,34,4.90
2010,05,06,01,35,4.90
2010,05,06,01,36,4.90
2010,05,06,01,37,4.90
2010,05,06,01,38,4.90
2010,05,06,01,39,4.90
2010,05,06,01,40,4.90
2010,05,06,01,41,4.80
2010,05,06,01,42,4.80
2010,05,06,01,43,4.80
2010,05,06,01,44,4.80
2010,05,06,01,45,4.80
2010,05,06,01,46,4.80
2010,05,06,01,47,4.80
2010,05,06,01,48,4.80
2010,05,06,01,49,4.80
2010,05,06,01,50,4.80
2010,05,06,01,51,4.80
2010,05,06,01,52,4.70
2010,05,06,01,53,4.70
2010,05,06,01,54,4.70
2010,05,06,01,55,4.70
2010,05,06,01,56,4.70
2010,05,06,01,57,4.70
2010,05,06,01,58,4.70
2010,05,06,01,59,4.70
2010,05,06,02,00,4.70
2010,05,06,02,01,4.70
2010,05,06,02,02,4.70
2010,05,06,02,03,4.60
2010,05,06,02,04,4.60
2010,05,06,02,05,4.70
2010,05,06,02,06,4.70
2010,05,06,02,07,4.70
2010,05,06,02,08,4.70
2010,05,06,02,09,4.70
2010,05,06,02,10,4.60
2010,05,06,02,11,4.60
2010,05,06,02,12,4.60
2010,05,06,02,13,4.60
2010,05,06,02,14,4.60
2010,05,06,02,15,4.60
2010,05,06,02,16,4.60
2010,05,06,02,17,4.60
2010,05,06,02,18,4.60
2010,05,06,02,19,4.60
2010,05,06,02,20,4.60
2010,05,06,02,21,4.60
2010,05,06,02,22,4.60
2010,05,06,02,23,4.60
2010,05,06,02,24,4.60
2010,05,06,02,25,4.60
2010,05,06,02,26,4.60
2010,05,06,02,27,4.60
2010,05,06,02,28,4.60
2010,05,06,02,29,4.60
2010,05,06,02,30,4.60
2010,05,06,02,31,4.60
2010,05,06,02,32,4.60
2010,05,06,02,33,4.60
2010,05,06,02,34,4.60
2010,05,06,02,35,4.60
2010,05,06,02,36,4.60
2010,05,06,02,37,4.60
2010,05,06,02,38,4.60
2010,05,06,02,39,4.60
2010,05,06,02,40,4.60
2010,05,06,02,41,4.60
2010,05,06,02,42,4.60
2010,05,06,02,43,4.60
2010,05,06,02,44,4.50
2010,05,06,02,45,4.50
2010,05,06,02,46,4.50
2010,05,06,02,47,4.50
2010,05,06,02,48,4.50
2010,05,06,02,49,4.50
2010,05,06,02,50,4.40
2010,05,06,02,51,4.40
2010,05,06,02,52,4.40
2010,05,06,02,53,4.40
2010,05,06,02,54,4.40
2010,05,06,02,55,4.40
2010,05,06,02,56,4.40
2010,05,06,02,57,4.40
2010,05,06,02,58,4.30
2010,05,06,02,59,4.30
2010,05,06,03,00,4.30
2010,05,06,03,01,4.30
2010,05,06,03,02,4.30
2010,05,06,03,03,4.30
2010,05,06,03,04,4.30
2010,05,06,03,05,4.30
2010,05,06,03,06,4.30
2010,05,06,03,07,4.30
2010,05,06,03,08,4.30
2010,05,06,03,09,4.20
2010,05,06,03,10,4.30
2010,05,06,03,11,4.20
2010,05,06,03,12,4.20
2010,05,06,03,13,4.30
2010,05,06,03,14,4.30
2010,05,06,03,15,4.20
2010,05,06,03,16,4.20
2010,05,06,03,17,4.20
2010,05,06,03,18,4.20
2010,05,06,03,19,4.20
2010,05,06,03,20,4.20
2010,05,06,03,21,4.20
2010,05,06,03,22,4.20
2010,05,06,03,23,4.20
2010,05,06,03,24,4.20
2010,05,06,03,25,4.20
2010,05,06,03,26,4.20
2010,05,06,03,27,4.20
2010,05,06,03,28,4.20
2010,05,06,03,29,4.20
2010,05,06,03,30,4.20
2010,05,06,03,31,4.20
2010,05,06,03,32,4.10
2010,05,06,03,33,4.10
2010,05,06,03,34,4.10
2010,05,06,03,35,4.10
2010,05,06,03,36,4.10
2010,05,06,03,37,4.10
2010,05,06,03,38,4.10
2010,05,06,03,39,4.10
2010,05,06,03,40,4.10
2010,05,06,03,41,4.10
2010,05,06,03,42,4.10
2010,05,06,03,43,4.10
2010,05,06,03,44,4.10
2010,05,06,03,45,4.10
2010,05,06,03,46,4.10
2010,05,06,03,47,4.10
2010,05,06,03,48,4.10
2010,05,06,03,49,4.10
2010,05,06,03,50,4.10
2010,05,06,03,51,4.10
2010,05,06,03,52,4.10
2010,05,06,03,53,4.10
2010,05,06,03,54,4.10
2010,05,06,03,55,4.10
2010,05,06,03,56,4.10
2010,05,06,03,57,4.10
2010,05,06,03,58,4.10
2010,05,06,03,59,4.10
2010,05,06,04,00,4.10
2010,05,06,04,01,4.00
2010,05,06,04,02,4.00
2010,05,06,04,03,4.00
2010,05,06,04,04,4.00
2010,05,06,04,05,4.00
2010,05,06,04,06,4.00
2010,05,06,04,07,4.00
2010,05,06,04,08,3.90
2010,05,06,04,09,3.90
2010,05,06,04,10,3.90
2010,05,06,04,11,3.90
2010,05,06,04,12,3.90
2010,05,06,04,13,3.90
2010,05,06,04,14,3.90
2010,05,06,04,15,3.90
2010,05,06,04,16,3.90
2010,05,06,04,17,3.90
2010,05,06,04,18,3.90
2010,05,06,04,19,3.90
2010,05,06,04,20,3.90
2010,05,06,04,21,3.90
2010,05,06,04,22,3.90
2010,05,06,04,23,3.90
2010,05,06,04,24,3.90
2010,05,06,04,25,3.80
2010,05,06,04,26,3.80
2010,05,06,04,27,3.80
2010,05,06,04,28,3.80
2010,05,06,04,29,3.80
2010,05,06,04,30,3.80
2010,05,06,04,31,3.80
2010,05,06,04,32,3.80
2010,05,06,04,33,3.80
2010,05,06,04,34,3.80
2010,05,06,04,35,3.80
2010,05,06,04,36,3.80
2010,05,06,04,37,3.80
2010,05,06,04,38,3.80
2010,05,06,04,39,3.80
2010,05,06,04,40,3.80
2010,05,06,04,41,3.70
2010,05,06,04,42,3.70
2010,05,06,04,43,3.70
2010,05,06,04,44,3.70
2010,05,06,04,45,3.70
2010,05,06,04,46,3.70
2010,05,06,04,47,3.70
2010,05,06,04,48,3.70
2010,05,06,04,49,3.70
2010,05,06,04,50,3.70
2010,05,06,04,51,3.60
2010,05,06,04,52,3.60
2010,05,06,04,53,3.60
2010,05,06,04,54,3.60
2010,05,06,04,55,3.60
2010,05,06,04,56,3.60
2010,05,06,04,57,3.60
2010,05,06,04,58,3.60
2010,05,06,04,59,3.60
2010,05,06,05,00,3.70
2010,05,06,05,01,3.70
2010,05,06,05,02,3.70
2010,05,06,05,03,3.70
2010,05,06,05,04,3.70
2010,05,06,05,05,3.70
2010,05,06,05,06,3.70
2010,05,06,05,07,3.70
2010,05,06,05,08,3.70
2010,05,06,05,09,3.70
2010,05,06,05,10,3.70
2010,05,06,05,11,3.70
2010,05,06,05,12,3.70
2010,05,06,05,13,3.70
2010,05,06,05,14,3.70
2010,05,06,05,15,3.70
2010,05,06,05,16,3.70
2010,05,06,05,17,3.70
2010,05,06,05,18,3.70
2010,05,06,05,19,3.70
2010,05,06,05,20,3.70
2010,05,06,05,21,3.70
2010,05,06,05,22,3.70
2010,05,06,05,23,3.70
2010,05,06,05,24,3.70
2010,05,06,05,25,3.70
2010,05,06,05,26,3.80
2010,05,06,05,27,3.80
2010,05,06,05,28,3.80
2010,05,06,05,29,3.80
2010,05,06,05,30,3.80
2010,05,06,05,31,3.80
2010,05,06,05,32,3.80
2010,05,06,05,33,3.80
2010,05,06,05,34,3.80
2010,05,06,05,35,3.80
2010,05,06,05,36,3.90
2010,05,06,05,37,3.90
2010,05,06,05,38,3.90
2010,05,06,05,39,3.90
2010,05,06,05,40,3.90
2010,05,06,05,41,3.90
2010,05,06,05,42,3.90
2010,05,06,05,43,3.90
2010,05,06,05,44,4.00
2010,05,06,05,45,3.90
2010,05,06,05,46,4.00
2010,05,06,05,47,4.00
2010,05,06,05,48,4.00
2010,05,06,05,49,4.00
2010,05,06,05,50,4.00
2010,05,06,05,51,4.00
2010,05,06,05,52,4.00
2010,05,06,05,53,4.10
2010,05,06,05,54,4.10
2010,05,06,05,55,4.10
2010,05,06,05,56,4.10
2010,05,06,05,57,4.10
2010,05,06,05,58,4.10
2010,05,06,05,59,4.10
2010,05,06,06,00,4.10
2010,05,06,06,01,4.10
2010,05,06,06,02,4.20
2010,05,06,06,03,4.20
2010,05,06,06,04,4.20
2010,05,06,06,05,4.20
2010,05,06,06,06,4.20
2010,05,06,06,07,4.20
2010,05,06,06,08,4.20
2010,05,06,06,09,4.20
2010,05,06,06,10,4.20
2010,05,06,06,11,4.20
2010,05,06,06,12,4.20
2010,05,06,06,13,4.20
2010,05,06,06,14,4.20
2010,05,06,06,15,4.20
2010,05,06,06,16,4.20
2010,05,06,06,17,4.20
2010,05,06,06,18,4.20
2010,05,06,06,19,4.20
2010,05,06,06,20,4.20
2010,05,06,06,21,4.20
2010,05,06,06,22,4.30
2010,05,06,06,23,4.30
2010,05,06,06,24,4.30
2010,05,06,06,25,4.30
2010,05,06,06,26,4.30
2010,05,06,06,27,4.30
2010,05,06,06,28,4.30
2010,05,06,06,29,4.30
2010,05,06,06,30,4.30
2010,05,06,06,31,4.30
2010,05,06,06,32,4.40
2010,05,06,06,33,4.40
2010,05,06,06,34,4.40
2010,05,06,06,35,4.40
2010,05,06,06,36,4.40
2010,05,06,06,37,4.50
2010,05,06,06,38,4.50
2010,05,06,06,39,4.50
2010,05,06,06,40,4.60
2010,05,06,06,41,4.60
2010,05,06,06,42,4.70
2010,05,06,06,43,4.70
2010,05,06,06,44,4.70
2010,05,06,06,45,4.70
2010,05,06,06,46,4.80
2010,05,06,06,47,4.80
2010,05,06,06,48,4.80
2010,05,06,06,49,4.90
2010,05,06,06,50,4.90
2010,05,06,06,51,4.90
2010,05,06,06,52,5.00
2010,05,06,06,53,5.00
2010,05,06,06,54,5.10
2010,05,06,06,55,5.10
2010,05,06,06,56,5.20
2010,05,06,06,57,5.20
2010,05,06,06,58,5.30
2010,05,06,06,59,5.30
2010,05,06,07,00,5.30
2010,05,06,07,01,5.40
2010,05,06,07,02,5.40
2010,05,06,07,03,5.40
2010,05,06,07,04,5.50
2010,05,06,07,05,5.50
2010,05,06,07,06,5.60
2010,05,06,07,07,5.60
2010,05,06,07,08,5.60
2010,05,06,07,09,5.70
2010,05,06,07,10,5.70
2010,05,06,07,11,5.70
2010,05,06,07,12,5.80
2010,05,06,07,13,5.80
2010,05,06,07,14,5.80
2010,05,06,07,15,5.80
2010,05,06,07,16,5.90
2010,05,06,07,17,5.90
2010,05,06,07,18,5.90
2010,05,06,07,19,5.90
2010,05,06,07,20,6.00
2010,05,06,07,21,6.00
2010,05,06,07,22,6.00
2010,05,06,07,23,6.00
2010,05,06,07,24,6.10
2010,05,06,07,25,6.10
2010,05,06,07,26,6.10
2010,05,06,07,27,6.10
2010,05,06,07,28,6.10
2010,05,06,07,29,6.10
2010,05,06,07,30,6.10
2010,05,06,07,31,6.10
2010,05,06,07,32,6.20
2010,05,06,07,33,6.20
2010,05,06,07,34,6.20
2010,05,06,07,35,6.20
2010,05,06,07,36,6.20
2010,05,06,07,37,6.20
2010,05,06,07,38,6.20
2010,05,06,07,39,6.20
2010,05,06,07,40,6.20
2010,05,06,07,41,6.20
2010,05,06,07,42,6.20
2010,05,06,07,43,6.20
2010,05,06,07,44,6.30
2010,05,06,07,45,6.30
2010,05,06,07,46,6.30
2010,05,06,07,47,6.30
2010,05,06,07,48,6.30
2010,05,06,07,49,6.30
2010,05,06,07,50,6.30
2010,05,06,07,51,6.30
2010,05,06,07,52,6.30
2010,05,06,07,53,6.30
2010,05,06,07,54,6.30
2010,05,06,07,55,6.30
2010,05,06,07,56,6.30
2010,05,06,07,57,6.40
2010,05,06,07,58,6.40
2010,05,06,07,59,6.40
2010,05,06,08,00,6.40
2010,05,06,08,01,6.40
2010,05,06,08,02,6.40
2010,05,06,08,03,6.50
2010,05,06,08,04,6.50
2010,05,06,08,05,6.50
2010,05,06,08,06,6.60
2010,05,06,08,07,6.60
2010,05,06,08,08,6.60
2010,05,06,08,09,6.70
2010,05,06,08,10,6.80
2010,05,06,08,11,6.80
2010,05,06,08,12,6.90
2010,05,06,08,13,7.00
2010,05,06,08,14,7.10
2010,05,06,08,15,7.10
2010,05,06,08,16,7.20
2010,05,06,08,17,7.40
2010,05,06,08,18,7.50
2010,05,06,08,19,7.60
2010,05,06,08,20,7.80
2010,05,06,08,21,7.90
2010,05,06,08,22,8.00
2010,05,06,08,23,8.20
2010,05,06,08,24,8.30
2010,05,06,08,25,8.40
2010,05,06,08,26,8.60
2010,05,06,08,27,8.70
2010,05,06,08,28,8.80
2010,05,06,08,29,8.90
2010,05,06,08,30,9.00
2010,05,06,08,31,9.10
2010,05,06,08,32,9.30
2010,05,06,08,33,9.40
2010,05,06,08,34,9.60
2010,05,06,08,35,9.70
2010,05,06,08,36,9.70
2010,05,06,08,37,9.70
2010,05,06,08,38,9.80
2010,05,06,08,39,9.80
2010,05,06,08,40,9.80
2010,05,06,08,41,9.80
2010,05,06,08,42,9.80
2010,05,06,08,43,9.70
2010,05,06,08,44,9.60
2010,05,06,08,45,9.60
2010,05,06,08,46,9.50
2010,05,06,08,47,9.50
2010,05,06,08,48,9.50
2010,05,06,08,49,9.50
2010,05,06,08,50,9.50
2010,05,06,08,51,9.60
2010,05,06,08,52,9.60
2010,05,06,08,53,9.50
2010,05,06,08,54,9.50
2010,05,06,08,55,9.50
2010,05,06,08,56,9.50
2010,05,06,08,57,9.40
2010,05,06,08,58,9.40
2010,05,06,08,59,9.40
2010,05,06,09,00,9.40
2010,05,06,09,01,9.40
2010,05,06,09,02,9.40
2010,05,06,09,03,9.50
2010,05,06,09,04,9.50
2010,05,06,09,05,9.50
2010,05,06,09,06,9.50
2010,05,06,09,07,9.60
2010,05,06,09,08,9.60
2010,05,06,09,09,9.60
2010,05,06,09,10,9.70
2010,05,06,09,11,9.70
2010,05,06,09,12,9.70
2010,05,06,09,13,9.70
2010,05,06,09,14,9.70
2010,05,06,09,15,9.70
2010,05,06,09,16,9.70
2010,05,06,09,17,9.70
2010,05,06,09,18,9.70
2010,05,06,09,19,9.80
2010,05,06,09,20,9.80
2010,05,06,09,21,9.90
2010,05,06,09,22,9.90
2010,05,06,09,23,9.90
2010,05,06,09,24,10.00
2010,05,06,09,25,10.10
2010,05,06,09,26,10.20
2010,05,06,09,27,10.20
2010,05,06,09,28,10.20
2010,05,06,09,29,10.20
2010,05,06,09,30,10.20
2010,05,06,09,31,10.20
2010,05,06,09,32,10.30
2010,05,06,09,33,10.30
2010,05,06,09,34,10.30
2010,05,06,09,35,10.40
2010,05,06,09,36,10.50
2010,05,06,09,37,10.50
2010,05,06,09,38,10.60
2010,05,06,09,39,10.60
2010,05,06,09,40,10.60
2010,05,06,09,41,10.70
2010,05,06,09,42,10.60
2010,05,06,09,43,10.60
2010,05,06,09,44,10.60
2010,05,06,09,45,10.60
2010,05,06,09,46,10.50
2010,05,06,09,47,10.50
2010,05,06,09,48,10.40
2010,05,06,09,49,10.30
2010,05,06,09,50,10.30
2010,05,06,09,51,10.20
2010,05,06,09,52,10.20
2010,05,06,09,53,10.20
2010,05,06,09,54,10.20
2010,05,06,09,55,10.20
2010,05,06,09,56,10.20
2010,05,06,09,57,10.30
2010,05,06,09,58,10.30
2010,05,06,09,59,10.40
2010,05,06,10,00,10.50
2010,05,06,10,01,10.60
2010,05,06,10,02,10.60
2010,05,06,10,03,10.70
2010,05,06,10,04,10.80
2010,05,06,10,05,10.90
2010,05,06,10,06,10.90
2010,05,06,10,07,11.00
2010,05,06,10,08,11.10
2010,05,06,10,09,11.20
2010,05,06,10,10,11.40
2010,05,06,10,11,11.50
2010,05,06,10,12,11.60
2010,05,06,10,13,11.70
2010,05,06,10,14,11.80
2010,05,06,10,15,12.00
2010,05,06,10,16,12.10
2010,05,06,10,17,12.20
2010,05,06,10,18,12.30
2010,05,06,10,19,12.40
2010,05,06,10,20,12.50
2010,05,06,10,21,12.60
2010,05,06,10,22,12.70
2010,05,06,10,23,12.70
2010,05,06,10,24,12.80
2010,05,06,10,25,12.90
2010,05,06,10,26,12.90
2010,05,06,10,27,12.90
2010,05,06,10,28,12.80
2010,05,06,10,29,12.70
2010,05,06,10,30,12.60
2010,05,06,10,31,12.50
2010,05,06,10,32,12.60
2010,05,06,10,33,12.70
2010,05,06,10,34,12.80
2010,05,06,10,35,12.90
2010,05,06,10,36,12.90
2010,05,06,10,37,13.00
2010,05,06,10,38,13.10
2010,05,06,10,39,13.00
2010,05,06,10,40,13.00
2010,05,06,10,41,12.90
2010,05,06,10,42,12.80
2010,05,06,10,43,12.70
2010,05,06,10,44,12.60
2010,05,06,10,45,12.50
2010,05,06,10,46,12.40
2010,05,06,10,47,12.30
2010,05,06,10,48,12.40
2010,05,06,10,49,12.40
2010,05,06,10,50,12.40
2010,05,06,10,51,12.40
2010,05,06,10,52,12.50
2010,05,06,10,53,12.50
2010,05,06,10,54,12.50
2010,05,06,10,55,12.50
2010,05,06,10,56,12.40
2010,05,06,10,57,12.30
2010,05,06,10,58,12.20
2010,05,06,10,59,12.10
2010,05,06,11,00,12.20
2010,05,06,11,01,12.20
2010,05,06,11,02,12.20
2010,05,06,11,03,12.30
2010,05,06,11,04,12.30
2010,05,06,11,05,12.40
2010,05,06,11,06,12.50
2010,05,06,11,07,12.60
2010,05,06,11,08,12.70
2010,05,06,11,09,12.80
2010,05,06,11,10,12.90
2010,05,06,11,11,13.10
2010,05,06,11,12,13.10
2010,05,06,11,13,13.20
2010,05,06,11,14,13.20
2010,05,06,11,15,13.10
2010,05,06,11,16,13.10
2010,05,06,11,17,13.00
2010,05,06,11,18,12.90
2010,05,06,11,19,12.80
2010,05,06,11,20,12.70
2010,05,06,11,21,12.60
2010,05,06,11,22,12.60
2010,05,06,11,23,12.50
2010,05,06,11,24,12.50
2010,05,06,11,25,12.30
2010,05,06,11,26,12.20
2010,05,06,11,27,12.10
2010,05,06,11,28,12.00
2010,05,06,11,29,12.00
2010,05,06,11,30,12.00
2010,05,06,11,31,12.10
2010,05,06,11,32,12.10
2010,05,06,11,33,12.10
2010,05,06,11,34,12.10
2010,05,06,11,35,12.20
2010,05,06,11,36,12.20
2010,05,06,11,37,12.20
2010,05,06,11,38,12.30
2010,05,06,11,39,12.50
2010,05,06,11,40,12.60
2010,05,06,11,41,12.70
2010,05,06,11,42,12.80
2010,05,06,11,43,12.80
2010,05,06,11,44,12.70
2010,05,06,11,45,12.70
2010,05,06,11,46,12.80
2010,05,06,11,47,12.80
2010,05,06,11,48,12.90
2010,05,06,11,49,12.90
2010,05,06,11,50,12.90
2010,05,06,11,51,12.90
2010,05,06,11,52,12.90
2010,05,06,11,53,12.90
2010,05,06,11,54,12.90
2010,05,06,11,55,13.00
2010,05,06,11,56,13.00
2010,05,06,11,57,13.20
2010,05,06,11,58,13.20
2010,05,06,11,59,13.20
2010,05,06,12,00,13.30
2010,05,06,12,01,13.30
2010,05,06,12,02,13.30
2010,05,06,12,03,13.40
2010,05,06,12,04,13.50
2010,05,06,12,05,13.50
2010,05,06,12,06,13.50
2010,05,06,12,07,13.60
2010,05,06,12,08,13.60
2010,05,06,12,09,13.60
2010,05,06,12,10,13.60
2010,05,06,12,11,13.50
2010,05,06,12,12,13.50
2010,05,06,12,13,13.50
2010,05,06,12,14,13.60
2010,05,06,12,15,13.70
2010,05,06,12,16,13.70
2010,05,06,12,17,13.70
2010,05,06,12,18,13.70
2010,05,06,12,19,13.70
2010,05,06,12,20,13.80
2010,05,06,12,21,13.80
2010,05,06,12,22,13.80
2010,05,06,12,23,13.80
2010,05,06,12,24,13.70
2010,05,06,12,25,13.70
2010,05,06,12,26,13.70
2010,05,06,12,27,13.70
2010,05,06,12,28,13.70
2010,05,06,12,29,13.70
2010,05,06,12,30,13.70
2010,05,06,12,31,13.70
2010,05,06,12,32,13.80
2010,05,06,12,33,13.80
2010,05,06,12,34,13.80
2010,05,06,12,35,13.70
2010,05,06,12,36,13.70
2010,05,06,12,37,13.60
2010,05,06,12,38,13.50
2010,05,06,12,39,13.40
2010,05,06,12,40,13.30
2010,05,06,12,41,13.30
2010,05,06,12,42,13.20
2010,05,06,12,43,13.20
2010,05,06,12,44,13.20
2010,05,06,12,45,13.20
2010,05,06,12,46,13.30
2010,05,06,12,47,13.30
2010,05,06,12,48,13.30
2010,05,06,12,49,13.20
2010,05,06,12,50,13.20
2010,05,06,12,51,13.20
2010,05,06,12,52,13.20
2010,05,06,12,53,13.30
2010,05,06,12,54,13.30
2010,05,06,12,55,13.30
2010,05,06,12,56,13.40
2010,05,06,12,57,13.40
2010,05,06,12,58,13.50
2010,05,06,12,59,13.60
2010,05,06,13,00,13.60
2010,05,06,13,01,13.70
2010,05,06,13,02,13.70
2010,05,06,13,03,13.80
2010,05,06,13,04,13.80
2010,05,06,13,05,13.80
2010,05,06,13,06,13.80
2010,05,06,13,07,13.80
2010,05,06,13,08,13.80
2010,05,06,13,09,13.80
2010,05,06,13,10,13.80
2010,05,06,13,11,13.80
2010,05,06,13,12,13.80
2010,05,06,13,13,13.80
2010,05,06,13,14,13.90
2010,05,06,13,15,13.90
2010,05,06,13,16,13.90
2010,05,06,13,17,13.90
2010,05,06,13,18,13.90
2010,05,06,13,19,13.90
2010,05,06,13,20,13.90
2010,05,06,13,21,13.80
2010,05,06,13,22,13.80
2010,05,06,13,23,13.80
2010,05,06,13,24,13.80
2010,05,06,13,25,13.80
2010,05,06,13,26,13.70
2010,05,06,13,27,13.70
2010,05,06,13,28,13.60
2010,05,06,13,29,13.60
2010,05,06,13,30,13.50
2010,05,06,13,31,13.40
2010,05,06,13,32,13.40
2010,05,06,13,33,13.40
2010,05,06,13,34,13.50
2010,05,06,13,35,13.60
2010,05,06,13,36,13.60
2010,05,06,13,37,13.70
2010,05,06,13,38,13.70
2010,05,06,13,39,13.50
2010,05,06,13,40,13.40
2010,05,06,13,41,13.30
2010,05,06,13,42,13.20
2010,05,06,13,43,13.10
2010,05,06,13,44,13.20
2010,05,06,13,45,13.20
2010,05,06,13,46,13.20
2010,05,06,13,47,13.30
2010,05,06,13,48,13.40
2010,05,06,13,49,13.50
2010,05,06,13,50,13.60
2010,05,06,13,51,13.70
2010,05,06,13,52,13.80
2010,05,06,13,53,13.90
2010,05,06,13,54,14.10
2010,05,06,13,55,14.10
2010,05,06,13,56,14.20
2010,05,06,13,57,14.20
2010,05,06,13,58,14.20
2010,05,06,13,59,14.30
2010,05,06,14,00,14.30
2010,05,06,14,01,14.20
2010,05,06,14,02,14.20
2010,05,06,14,03,14.10
2010,05,06,14,04,14.10
2010,05,06,14,05,14.00
2010,05,06,14,06,13.90
2010,05,06,14,07,13.80
2010,05,06,14,08,13.70
2010,05,06,14,09,13.60
2010,05,06,14,10,13.50
2010,05,06,14,11,13.50
2010,05,06,14,12,13.40
2010,05,06,14,13,13.40
2010,05,06,14,14,13.40
2010,05,06,14,15,13.40
2010,05,06,14,16,13.50
2010,05,06,14,17,13.50
2010,05,06,14,18,13.60
2010,05,06,14,19,13.60
2010,05,06,14,20,13.60
2010,05,06,14,21,13.60
2010,05,06,14,22,13.50
2010,05,06,14,23,13.40
2010,05,06,14,24,13.30
2010,05,06,14,25,13.30
2010,05,06,14,26,13.20
2010,05,06,14,27,13.10
2010,05,06,14,28,13.00
2010,05,06,14,29,12.90
2010,05,06,14,30,12.90
2010,05,06,14,31,12.90
2010,05,06,14,32,12.90
2010,05,06,14,33,12.90
2010,05,06,14,34,12.90
2010,05,06,14,35,12.90
2010,05,06,14,36,13.00
2010,05,06,14,37,13.00
2010,05,06,14,38,13.00
2010,05,06,14,39,13.10
2010,05,06,14,40,13.10
2010,05,06,14,41,13.10
2010,05,06,14,42,13.10
2010,05,06,14,43,13.10
2010,05,06,14,44,13.00
2010,05,06,14,45,13.00
2010,05,06,14,46,13.00
2010,05,06,14,47,13.00
2010,05,06,14,48,13.10
2010,05,06,14,49,13.20
2010,05,06,14,50,13.30
2010,05,06,14,51,13.30
2010,05,06,14,52,13.40
2010,05,06,14,53,13.40
2010,05,06,14,54,13.50
2010,05,06,14,55,13.50
2010,05,06,14,56,13.60
2010,05,06,14,57,13.60
2010,05,06,14,58,13.70
2010,05,06,14,59,13.80
2010,05,06,15,00,13.90
2010,05,06,15,01,14.00
2010,05,06,15,02,14.10
2010,05,06,15,03,14.20
2010,05,06,15,04,14.30
2010,05,06,15,05,14.40
2010,05,06,15,06,14.50
2010,05,06,15,07,14.60
2010,05,06,15,08,14.70
2010,05,06,15,09,14.80
2010,05,06,15,10,14.90
2010,05,06,15,11,15.10
2010,05,06,15,12,15.20
2010,05,06,15,13,15.30
2010,05,06,15,14,15.40
2010,05,06,15,15,15.50
2010,05,06,15,16,15.60
2010,05,06,15,17,15.70
2010,05,06,15,18,15.80
2010,05,06,15,19,15.80
2010,05,06,15,20,15.80
2010,05,06,15,21,15.70
2010,05,06,15,22,15.70
2010,05,06,15,23,15.60
2010,05,06,15,24,15.60
2010,05,06,15,25,15.50
2010,05,06,15,26,15.50
2010,05,06,15,27,15.50
2010,05,06,15,28,15.60
2010,05,06,15,29,15.50
2010,05,06,15,30,15.40
2010,05,06,15,31,15.40
2010,05,06,15,32,15.30
2010,05,06,15,33,15.30
2010,05,06,15,34,15.30
2010,05,06,15,35,15.30
2010,05,06,15,36,15.20
2010,05,06,15,37,15.20
2010,05,06,15,38,15.20
2010,05,06,15,39,15.20
2010,05,06,15,40,15.20
2010,05,06,15,41,15.10
2010,05,06,15,42,15.10
2010,05,06,15,43,15.00
2010,05,06,15,44,15.00
2010,05,06,15,45,14.80
2010,05,06,15,46,14.80
2010,05,06,15,47,14.70
2010,05,06,15,48,14.60
2010,05,06,15,49,14.60
2010,05,06,15,50,14.50
2010,05,06,15,51,14.60
2010,05,06,15,52,14.60
2010,05,06,15,53,14.70
2010,05,06,15,54,14.70
2010,05,06,15,55,14.80
2010,05,06,15,56,14.80
2010,05,06,15,57,14.80
2010,05,06,15,58,14.80
2010,05,06,15,59,14.80
2010,05,06,16,00,14.80
2010,05,06,16,01,14.80
2010,05,06,16,02,14.80
2010,05,06,16,03,14.90
2010,05,06,16,04,14.90
2010,05,06,16,05,14.90
2010,05,06,16,06,14.90
2010,05,06,16,07,14.90
2010,05,06,16,08,14.80
2010,05,06,16,09,14.80
2010,05,06,16,10,14.90
2010,05,06,16,11,14.90
2010,05,06,16,12,14.90
2010,05,06,16,13,15.00
2010,05,06,16,14,15.00
2010,05,06,16,15,15.00
2010,05,06,16,16,15.10
2010,05,06,16,17,15.10
2010,05,06,16,18,15.10
2010,05,06,16,19,15.10
2010,05,06,16,20,15.00
2010,05,06,16,21,14.90
2010,05,06,16,22,14.90
2010,05,06,16,23,14.80
2010,05,06,16,24,14.80
2010,05,06,16,25,14.80
2010,05,06,16,26,14.80
2010,05,06,16,27,14.80
2010,05,06,16,28,14.80
2010,05,06,16,29,14.80
2010,05,06,16,30,14.90
2010,05,06,16,31,14.90
2010,05,06,16,32,14.90
2010,05,06,16,33,14.90
2010,05,06,16,34,14.90
2010,05,06,16,35,14.90
2010,05,06,16,36,14.90
2010,05,06,16,37,14.90
2010,05,06,16,38,14.90
2010,05,06,16,39,14.90
2010,05,06,16,40,14.90
2010,05,06,16,41,14.90
2010,05,06,16,42,14.80
2010,05,06,16,43,14.80
2010,05,06,16,44,14.80
2010,05,06,16,45,14.80
2010,05,06,16,46,14.70
2010,05,06,16,47,14.70
2010,05,06,16,48,14.70
2010,05,06,16,49,14.70
2010,05,06,16,50,14.70
2010,05,06,16,51,14.70
2010,05,06,16,52,14.70
2010,05,06,16,53,14.60
2010,05,06,16,54,14.60
2010,05,06,16,55,14.60
2010,05,06,16,56,14.60
2010,05,06,16,57,14.50
2010,05,06,16,58,14.50
2010,05,06,16,59,14.40
2010,05,06,17,00,14.50
2010,05,06,17,01,14.50
2010,05,06,17,02,14.50
2010,05,06,17,03,14.50
2010,05,06,17,04,14.40
2010,05,06,17,05,14.50
2010,05,06,17,06,14.40
2010,05,06,17,07,14.40
2010,05,06,17,08,14.40
2010,05,06,17,09,14.30
2010,05,06,17,10,14.30
2010,05,06,17,11,14.30
2010,05,06,17,12,14.30
2010,05,06,17,13,14.30
2010,05,06,17,14,14.40
2010,05,06,17,15,14.40
2010,05,06,17,16,14.40
2010,05,06,17,17,14.30
2010,05,06,17,18,14.30
2010,05,06,17,19,14.30
2010,05,06,17,20,14.40
2010,05,06,17,21,14.40
2010,05,06,17,22,14.40
2010,05,06,17,23,14.40
2010,05,06,17,24,14.40
2010,05,06,17,25,14.40
2010,05,06,17,26,14.40
2010,05,06,17,27,14.40
2010,05,06,17,28,14.40
2010,05,06,17,29,14.30
2010,05,06,17,30,14.30
2010,05,06,17,31,14.30
2010,05,06,17,32,14.30
2010,05,06,17,33,14.30
2010,05,06,17,34,14.30
2010,05,06,17,35,14.30
2010,05,06,17,36,14.20
2010,05,06,17,37,14.10
2010,05,06,17,38,14.00
2010,05,06,17,39,14.00
2010,05,06,17,40,13.90
2010,05,06,17,41,13.90
2010,05,06,17,42,13.90
2010,05,06,17,43,13.90
2010,05,06,17,44,13.80
2010,05,06,17,45,13.80
2010,05,06,17,46,13.80
2010,05,06,17,47,13.80
2010,05,06,17,48,13.80